BAW285 EGLL-KSFO

Flight info

Callsign BAW285
Flight time N/A
Altitude 36000
Route ULTIB T420 TNT UN57 POL UN601 RIBEL DCT ASLIB DCT BALIX/M085F360 DCT 64N020W 67N030W 69N040W 70N050W 70N060W/M084F380 DCT ADSAM/N0486F380 DCT 69N070W 68N080W 65N091W 60N101W DCT MEETO Q896 BORIX/N0479F400 Q896 YQL J540 MLP DCT LKV J3 RBL/N0465F390 DCT MRRLO BDEGA4
Aircraft A388/J-SADE2E3FGHIJ3J4J5M1RWXY/LB1D1

Departure

Time 2026-05-04 18:05
Airport London Heathrow Airport (EGLL)

Arrival

Time N/A
Airport San Francisco International Airport (KSFO)
Time Latitude Longitude Altitude Speed Heading
2026-05-04 17:11 51.47115 -0.48244 91 ft 0 kts 90°
2026-05-04 17:54 51.47115 -0.48280 92 ft 4 kts 90°
2026-05-04 17:54 51.47115 -0.48315 91 ft 4 kts 93°
2026-05-04 17:55 51.47120 -0.48345 92 ft 4 kts 129°
2026-05-04 17:55 51.47131 -0.48356 94 ft 4 kts 175°
2026-05-04 17:55 51.47156 -0.48357 94 ft 4 kts 180°
2026-05-04 17:55 51.47174 -0.48357 93 ft 1 kts 180°
2026-05-04 17:58 51.47163 -0.48357 93 ft 4 kts 180°
2026-05-04 17:58 51.47119 -0.48357 92 ft 8 kts 180°
2026-05-04 17:59 51.47049 -0.48356 94 ft 12 kts 180°
2026-05-04 17:59 51.46984 -0.48356 95 ft 8 kts 180°
2026-05-04 17:59 51.46909 -0.48355 94 ft 5 kts 180°
2026-05-04 18:00 51.46864 -0.48355 91 ft 7 kts 180°
2026-05-04 18:00 51.46860 -0.48355 94 ft 0 kts 180°
2026-05-04 18:00 51.46855 -0.48355 94 ft 3 kts 180°
2026-05-04 18:00 51.46840 -0.48355 91 ft 4 kts 179°
2026-05-04 18:01 51.46797 -0.48354 93 ft 8 kts 180°
2026-05-04 18:01 51.46754 -0.48367 93 ft 6 kts 224°
2026-05-04 18:01 51.46741 -0.48425 93 ft 7 kts 272°
2026-05-04 18:02 51.46742 -0.48654 91 ft 10 kts 270°
2026-05-04 18:02 51.46723 -0.48738 96 ft 8 kts 208°
2026-05-04 18:02 51.46664 -0.48748 93 ft 10 kts 177°
2026-05-04 18:02 51.46627 -0.48752 93 ft 4 kts 198°
2026-05-04 18:03 51.46622 -0.48754 94 ft 0 kts 201°
2026-05-04 18:03 51.46620 -0.48756 94 ft 2 kts 201°
2026-05-04 18:03 51.46591 -0.48773 94 ft 7 kts 198°
2026-05-04 18:03 51.46534 -0.48788 92 ft 9 kts 168°
2026-05-04 18:04 51.46488 -0.48736 93 ft 8 kts 112°
2026-05-04 18:04 51.46477 -0.48641 94 ft 9 kts 89°
2026-05-04 18:04 51.46481 -0.48132 93 ft 73 kts 90°
2026-05-04 18:05 51.46484 -0.46911 96 ft 140 kts 89°
2026-05-04 18:05 51.46504 -0.45141 239 ft 167 kts 89°
2026-05-04 18:05 51.46497 -0.43347 959 ft 162 kts 88°
2026-05-04 18:05 51.46511 -0.41520 1529 ft 164 kts 78°
2026-05-04 18:06 51.47841 -0.38472 2319 ft 180 kts 46°
2026-05-04 18:06 51.48710 -0.36977 2567 ft 190 kts 47°
2026-05-04 18:06 51.49607 -0.35349 2806 ft 199 kts 49°
2026-05-04 18:07 51.50544 -0.33602 3024 ft 218 kts 49°
2026-05-04 18:07 51.51544 -0.31628 3340 ft 240 kts 55°
2026-05-04 18:07 51.52380 -0.29172 3795 ft 257 kts 67°
2026-05-04 18:07 51.52972 -0.26481 4538 ft 260 kts 71°
2026-05-04 18:08 51.53561 -0.23688 5221 ft 268 kts 71°
2026-05-04 18:08 51.54169 -0.20809 5954 ft 273 kts 71°
2026-05-04 18:08 51.55046 -0.18139 6739 ft 275 kts 47°
2026-05-04 18:08 51.56617 -0.16369 7477 ft 278 kts 20°
2026-05-04 18:09 51.60250 -0.17324 8877 ft 280 kts 319°
2026-05-04 18:09 51.63111 -0.21702 10243 ft 288 kts 309°
2026-05-04 18:10 51.64412 -0.24220 10556 ft 304 kts 306°
2026-05-04 18:10 51.65841 -0.26869 10797 ft 323 kts 314°
2026-05-04 18:10 51.67563 -0.29282 11118 ft 337 kts 321°
2026-05-04 18:10 51.69553 -0.31439 11510 ft 349 kts 328°
2026-05-04 18:11 51.71661 -0.33386 12264 ft 348 kts 328°
2026-05-04 18:11 51.73768 -0.35344 13077 ft 345 kts 329°
2026-05-04 18:11 51.75847 -0.37298 13683 ft 349 kts 328°
2026-05-04 18:11 51.77947 -0.39320 14202 ft 353 kts 328°
2026-05-04 18:12 51.80036 -0.41373 14698 ft 357 kts 328°
2026-05-04 18:12 51.82166 -0.43487 15202 ft 362 kts 327°
2026-05-04 18:12 51.84322 -0.45633 15796 ft 363 kts 327°
2026-05-04 18:12 51.86487 -0.47756 16382 ft 365 kts 327°
2026-05-04 18:13 51.88672 -0.49876 16991 ft 367 kts 327°
2026-05-04 18:13 51.90889 -0.52027 17311 ft 376 kts 327°
2026-05-04 18:13 51.95430 -0.56427 18314 ft 383 kts 327°
2026-05-04 18:14 51.97735 -0.58662 18722 ft 387 kts 327°
2026-05-04 18:14 52.00046 -0.60913 19204 ft 389 kts 327°
2026-05-04 18:14 52.02375 -0.63190 19648 ft 391 kts 327°
2026-05-04 18:15 52.07053 -0.67778 20595 ft 394 kts 326°
2026-05-04 18:15 52.11751 -0.72401 21426 ft 400 kts 326°
2026-05-04 18:15 52.14139 -0.74754 21862 ft 402 kts 326°
2026-05-04 18:16 52.16537 -0.77121 22288 ft 404 kts 326°
2026-05-04 18:16 52.18952 -0.79507 22710 ft 407 kts 326°
2026-05-04 18:16 52.21382 -0.81911 23124 ft 410 kts 325°
2026-05-04 18:17 52.24271 -0.84773 23603 ft 413 kts 325°
2026-05-04 18:17 52.26732 -0.87215 23956 ft 415 kts 325°